EDT,Max TemperatureF,Mean TemperatureF,Min TemperatureF,Max Dew PointF,MeanDew PointF,Min DewpointF,Max Humidity, Mean Humidity, Min Humidity, Max Sea Level PressureIn, Mean Sea Level PressureIn, Min Sea Level PressureIn, Max VisibilityMiles, Mean VisibilityMiles, Min VisibilityMiles, Max Wind SpeedMPH, Mean Wind SpeedMPH, Max Gust SpeedMPH,PrecipitationIn, CloudCover, Events, WindDirDegrees
2012-6-1,64,58,51,57,51,43,94,81,67,29.93,29.74,29.58,10,10,4,21,12,30,0.45,7,,144
2012-6-2,64,56,48,48,44,36,88,69,34,29.80,29.73,29.66,10,10,2,18,13,30,0.09,6,Thunderstorm,227
2012-6-3,64,57,50,54,50,46,94,85,56,29.79,29.73,29.70,10,9,6,17,10,25,0.48,7,Thunderstorm,243
2012-6-4,55,50,46,50,47,45,93,84,72,29.89,29.79,29.71,10,9,2,15,8,20,0.00,7,,349
2012-6-5,60,54,48,46,44,41,87,71,48,30.01,29.95,29.87,10,10,10,13,7,17,0.00,7,,40
2012-6-6,66,54,42,48,45,41,100,71,46,30.05,30.02,29.99,10,9,0,20,3,28,0.00,3,,283
2012-6-7,71,58,46,52,47,45,94,66,41,30.05,30.03,30.01,10,10,3,18,5,25,0.00,2,,280
2012-6-8,73,60,48,52,48,41,94,60,31,30.05,30.01,29.96,10,10,8,18,6,24,0.00,0,,262
2012-6-9,78,69,60,57,51,45,72,56,39,30.03,29.98,29.95,10,10,10,16,7,22,0.00,6,,247
2012-6-10,84,72,59,57,55,52,77,54,37,30.15,30.10,30.02,10,10,10,9,5,,0.00,0,,242
2012-6-11,80,71,62,63,59,55,94,70,44,30.13,30.07,30.01,10,9,5,18,6,28,0.16,3,,172
2012-6-12,77,68,57,70,62,48,100,84,68,30.04,29.92,29.87,10,8,3,21,9,23,0.98,6,Thunderstorm,229
2012-6-13,64,54,44,48,45,37,87,68,52,30.19,30.14,30.04,10,10,10,16,9,20,0.00,2,,349
2012-6-14,73,60,46,54,48,43,93,63,41,30.27,30.23,30.19,10,10,10,12,6,17,0.00,0,,80
2012-6-15,78,66,53,57,54,48,82,62,44,30.31,30.26,30.21,10,10,10,9,4,,0.00,2,,156
2012-6-16,75,66,57,55,54,52,88,64,47,30.32,30.25,30.15,10,10,10,13,7,17,0.00,0,,176
2012-6-17,78,68,57,63,57,52,94,70,57,30.14,30.03,29.94,10,10,6,17,9,25,0.12,2,,179
2012-6-18,78,69,60,66,62,57,94,82,47,30.02,29.97,29.93,10,9,4,14,10,20,0.01,5,,180
2012-6-19,84,74,64,68,64,63,94,72,51,30.14,30.08,30.03,10,9,3,15,10,20,0.00,2,,222
2012-6-20,84,76,68,66,63,61,83,64,51,30.20,30.14,30.06,10,10,10,15,7,21,0.00,0,,247
2012-6-21,84,75,66,64,62,57,88,65,47,30.07,29.99,29.88,10,10,5,14,6,16,0.00,1,,241
2012-6-22,75,68,62,63,58,52,94,70,47,29.99,29.95,29.91,10,10,7,15,6,21,0.02,4,,314
2012-6-23,71,63,55,54,49,39,82,59,31,30.10,30.04,29.99,10,10,10,14,6,18,0.00,1,,327
2012-6-24,73,63,53,55,53,48,94,67,43,30.10,30.03,29.86,10,10,10,9,3,,0.00,3,Thunderstorm,211
2012-6-25,62,58,55,59,49,39,94,69,42,29.96,29.92,29.86,10,9,0,18,8,28,0.55,6,Thunderstorm,341
2012-6-26,69,60,51,52,47,43,82,61,46,29.98,29.94,29.89,10,10,10,21,9,24,0.00,2,,325
2012-6-27,73,65,57,55,52,48,88,64,49,30.01,29.95,29.90,10,10,7,15,8,23,0.00,1,,284
2012-6-28,84,72,59,63,56,48,72,56,42,29.93,29.85,29.77,10,10,8,15,7,20,0.00,2,,229
2012-6-29,84,75,66,66,60,55,100,62,37,29.87,29.83,29.76,10,9,0,18,6,24,0.00,1,Thunderstorm,261
2012-6-30,82,71,60,61,58,55,82,62,39,29.89,29.86,29.81,10,10,10,15,9,21,0.00,0,,233